Location: Asheville, NC
(35.6000°N, 82.5500°W)
Time: 22:51:44
(UTC-04:00)

Vanguard 2 Rocket - Pass Details

Date: 16 February 2018
Orbit: 554 x 3327 km, 32.9° (Epoch: 20 May)

Event Time Altitude Azimuth Distance (km) Brightness Sun altitude
Exits shadow 02:03:03 47° 94° (E) 4,002 9.9 -60.7°
Drops below altitude 10° 02:15:02 10° 88° (E) 6,055 11.3 -59.0°
Sets 02:19:19 0° 88° (E) 6,882 11.7 -58.3°
